This demonstration page uses our WeatherBlox Daily Observations layout. Learn more.

Left ArrowRight Arrow

41.86663, -103.66717

Hourly Observations for July 30, 2021

Temp ( °F °C ) Dew Point ( °F °C ) Humidity (%) Winds ( mph kmh ) Pressure ( in mb ) Visibility ( mi km ) Precip ( " mm )
12:53 am 00:53 Clear 73 22.8 66 18.9 79 79 E 13 20 29.99 1016 10 16 N/A
1:53 am 01:53 Clear 73 22.8 68 20 84 84 undefined N/A 29.99 1016 9 14 N/A
2:37 am 02:37 Mostly Clear 73 22.8 68 20 84 84 undefined N/A 29.90 1013 8 13 N/A
2:53 am 02:53 Partly Cloudy 72 22.2 68 20 87 87 undefined N/A 29.98 1015 7 11 N/A
3:38 am 03:38 Mostly Cloudy with Mist and Fog 73 23 70 21 89 89 undefined N/A 29.94 1014 6 10 N/A
3:53 am 03:53 Cloudy with Mist and Fog 73 22.8 69 20.6 87 87 undefined N/A 30.01 1016 6 10 N/A
4:43 am 04:43 Mostly Cloudy 73 22.8 69 20.6 87 87 E 12 19 29.92 1013 7 11 N/A
4:53 am 04:53 Mostly Cloudy 73 22.8 68 20 84 84 ENE 7 11 29.99 1016 7 11 N/A
5:09 am 05:09 Partly Cloudy 73 22.8 68 20 84 84 E 7 11 29.92 1013 7 11 N/A
5:37 am 05:37 Mostly Cloudy 72 22.2 67 19.4 84 84 ENE 9 15 29.93 1014 7 11 N/A
5:53 am 05:53 Cloudy with Haze 72 22.2 66 18.9 82 82 NE 9 15 29.98 1015 6 10 N/A
6:08 am 06:08 Cloudy with Haze 70 21 59 15 69 69 N 8 13 29.96 1014 3 4 N/A
6:19 am 06:19 Cloudy with Haze 69 20.6 58 14.4 68 68 undefined N/A 29.96 1015 2 3 N/A
6:38 am 06:38 Cloudy with Haze 68 20 56 13.3 65 65 NNE 12 19 29.98 1015 2 2 N/A
6:53 am 06:53 Mostly Cloudy with Haze 68 20 56 13.3 65 65 NE 9 15 30.01 1016 2 2 N/A
7:13 am 07:13 Hazy 69 20.6 57 13.9 66 66 NE 10 17 29.97 1015 2 2 N/A
7:53 am 07:53 Hazy 69 20.6 58 14.4 68 68 ENE 9 15 30.02 1017 2 2 N/A
8:16 am 08:16 Hazy 72 22 57 14 61 61 N N/A 29.95 1014 2 2 N/A
8:37 am 08:37 Cloudy with Haze 72 22.2 60 15.6 66 66 NW 7 11 29.97 1015 2 3 N/A
8:53 am 08:53 Cloudy with Haze 71 21.7 58 14.4 63 63 WNW 9 15 30.06 1018 2 2 N/A
9:13 am 09:13 Mostly Cloudy with Haze 74 23.3 59 15 60 60 NW 6 9 29.96 1014 2 2 N/A
9:23 am 09:23 Hazy 76 24.4 61 16.1 60 60 NW 6 9 29.95 1014 2 3 N/A
9:29 am 09:29 Mostly Cloudy with Haze 77 25 62 16.7 60 60 NNW 5 7 29.94 1014 2 3 N/A
9:49 am 09:49 Cloudy with Haze 75 24 61 16 61 61 WNW 6 9 29.95 1014 2 3 N/A
9:53 am 09:53 Cloudy with Haze 76 24.4 61 16.1 60 60 WNW 7 11 30.05 1018 2 3 N/A
10:04 am 10:04 Mostly Cloudy with Haze 77 25 61 16.1 58 58 WNW 7 11 29.93 1014 2 3 N/A
10:24 am 10:24 Hazy 78 25.6 62 16.7 58 58 WNW 6 9 29.92 1013 2 3 N/A
10:53 am 10:53 Hazy 80 26.7 63 17.2 56 56 WNW 5 7 30.04 1017 3 4 N/A
11:53 am 11:53 Hazy 84 28.9 63 17.2 49 49 VRB 3 6 30.02 1017 3 4 N/A
12:53 pm 12:53 Hazy 88 31.1 61 16.1 40 40 NNE 7 11 30.00 1016 3 4 N/A
1:09 pm 13:09 Hazy 88 31.1 61 16.1 40 40 ENE 8 13 29.82 1010 3 5 N/A
1:53 pm 13:53 Hazy 89 31.7 62 16.7 41 41 NE 10 17 29.99 1016 3 5 N/A
2:53 pm 14:53 Hazy 90 32.2 62 16.7 39 39 E 13 20 29.97 1015 4 6 N/A
3:53 pm 15:53 Hazy 91 32.8 61 16.1 37 37 E 10 17 29.96 1015 4 6 N/A
4:53 pm 16:53 Hazy 91 32.8 60 15.6 35 35 ENE 12 19 29.96 1015 5 8 N/A
5:53 pm 17:53 Hazy 88 31.1 61 16.1 40 40 ENE 7 11 29.96 1015 5 8 N/A
6:53 pm 18:53 Hazy 84 28.9 62 16.7 48 48 ENE 8 13 29.98 1015 5 8 N/A
7:53 pm 19:53 Hazy 82 27.8 60 15.6 47 47 NNE 12 19 30.00 1016 5 8 N/A
8:09 pm 20:09 Hazy 81 27.2 60 15.6 49 49 NNE 13 20 29.87 1012 3 4 N/A
8:19 pm 20:19 Hazy 80 26.7 60 15.6 51 51 NNE 9 15 29.89 1012 4 6 N/A
8:53 pm 20:53 Mostly Cloudy with Haze 79 26.1 59 15 50 50 NNE 14 22 30.06 1018 3 5 N/A
9:53 pm 21:53 Mostly Cloudy with Haze 78 25.6 59 15 52 52 NNW 10 17 30.08 1019 4 6 N/A
10:53 pm 22:53 Mostly Clear 73 22.8 62 16.7 69 69 WNW 7 11 30.09 1019 7 11 0.00 0.00
11:53 pm 23:53 Hazy 73 22.8 59 15 62 62 NNW 16 26 30.09 1019 4 6 N/A

Powered by AerisWeather